Location: Minneapolis
(44.9800°N, 93.2640°W)
Time: 21:31:35
(UTC-05:00)

Iridium 96 - Visible Passes

Search period start: 27 March 2017 00:00
Search period end: 06 April 2017 00:00
Orbit: 775 x 780 km, 86.4° (Epoch: 26 March)

Date Brightness Start Highest point End Pass type
(mag) Time Alt. Az. Time Alt. Az. Time Alt. Az.
27 Mar 7.9 00:13:29 10° N 00:14:50 18° N 00:14:50 18° N visible
27 Mar 7.7 23:40:01 10° N 23:41:33 19° N 23:41:33 19° N visible
28 Mar 8.4 01:21:51 10° NW 01:22:01 11° NW 01:22:01 11° NW visible
28 Mar 7.7 23:06:48 10° NNE 23:08:16 17° NNE 23:08:16 17° NNE visible
29 Mar 8.1 00:47:33 10° NNW 00:48:45 16° NNW 00:48:45 16° NNW visible
29 Mar 7.8 22:33:59 10° NNE 22:34:59 13° NE 22:34:59 13° NE visible
30 Mar 7.7 00:13:40 10° N 00:15:28 22° NNW 00:15:28 22° NNW visible
30 Mar 7.4 23:40:03 10° N 23:42:12 25° N 23:42:12 25° N visible
31 Mar 7.3 23:06:40 10° N 23:08:56 24° NNE 23:08:56 24° NNE visible
01 Apr 8.0 00:48:03 10° NNW 00:49:26 16° NW 00:49:26 16° NW visible
01 Apr 7.4 22:33:36 10° NNE 22:35:42 20° NE 22:35:42 20° NE visible
02 Apr 7.6 00:13:57 10° NNW 00:16:10 24° NNW 00:16:10 24° NNW visible
02 Apr 7.6 22:01:03 10° NE 22:02:27 13° NE 22:02:27 13° NE visible
02 Apr 7.1 23:40:11 10° N 23:42:56 32° NNW 23:42:56 32° NNW visible
03 Apr 6.8 23:06:39 10° N 23:09:42 35° NNE 23:09:42 35° NNE visible
04 Apr 8.1 00:48:47 10° NW 00:50:11 14° NW 00:50:11 14° NW visible
04 Apr 6.8 22:33:22 10° NNE 22:36:28 29° NE 22:36:28 29° NE visible
05 Apr 7.6 00:14:20 10° NNW 00:16:57 23° NW 00:16:57 23° NW visible
05 Apr 7.2 22:00:27 10° NNE 22:03:15 20° NE 22:03:15 20° NE visible
05 Apr 6.9 23:40:23 10° NNW 23:43:45 36° NW 23:43:45 36° NW visible
